When you browse on this site, cookies collect data to enhance your experience and personalize the content and advertising you see.
Visit our Privacy Policy to learn more. By continuing to use the site, you agree to this use of cookies and data.
  • en Suisse
  • Liste des pays
  • À 7 jours
  • Température de l'eau
  • Carte satellitaire
  • Carte météo
  • Widgets météo
  • user-avatar
    Se connecter

    Météo par heure à Plebanivka

    Ce jour, 20 Avril, Samedi

    Heure Température Précipitation Vent Pression Humidité
    00:00 +8°C° 0 mm 1 m/s 742 mmHg 69%
    01:00 +8°C° 0 mm 1 m/s 742 mmHg 70%
    02:00 +7°C° 0 mm 0 m/s 742 mmHg 71%
    03:00 +6°C° 0 mm 0 m/s 742 mmHg 72%
    04:00 +7°C° 0 mm 1 m/s 742 mmHg 73%
    05:00 +6°C° 0 mm 1 m/s 742 mmHg 74%
    06:00 +6°C° 0 mm 0 m/s 742 mmHg 69%
    07:00 +8°C° 0 mm 0 m/s 742 mmHg 65%
    08:00 +9°C° 0 mm 0 m/s 742 mmHg 60%
    09:00 +11°C° 0 mm 1 m/s 742 mmHg 54%
    10:00 +12°C° 0 mm 1 m/s 742 mmHg 48%
    11:00 +14°C° 0 mm 1 m/s 742 mmHg 42%
    12:00 +14°C° 0 mm 1 m/s 741 mmHg 42%
    13:00 +14°C° 0 mm 1 m/s 741 mmHg 42%
    14:00 +14°C° 0 mm 1 m/s 741 mmHg 42%
    15:00 +14°C° 0 mm 1 m/s 740 mmHg 42%
    16:00 +14°C° 0 mm 1 m/s 740 mmHg 42%
    17:00 +14°C° 0 mm 1 m/s 740 mmHg 42%
    18:00 +13°C° 0 mm 1 m/s 739 mmHg 46%
    19:00 +12°C° 0 mm 2 m/s 739 mmHg 49%
    20:00 +10°C° 0 mm 2 m/s 739 mmHg 52%
    21:00 +10°C° 0 mm 2 m/s 739 mmHg 55%
    22:00 +9°C° 0 mm 3 m/s 739 mmHg 58%
    23:00 +9°C° 0 mm 3 m/s 738 mmHg 61%

    Demain, 21 Avril, Dimanche

    Heure Température Précipitation Vent Pression Humidité
    00:00 +8°C° 0 mm 3 m/s 738 mmHg 64%
    01:00 +8°C° 0 mm 3 m/s 738 mmHg 67%
    02:00 +8°C° 0 mm 3 m/s 738 mmHg 70%
    03:00 +7°C° 0.5 mm 2 m/s 737 mmHg 74%
    04:00 +7°C° 0.5 mm 2 m/s 737 mmHg 78%
    05:00 +7°C° 0.5 mm 2 m/s 737 mmHg 82%
    06:00 +7°C° 0.5 mm 2 m/s 737 mmHg 82%
    07:00 +8°C° 0.5 mm 2 m/s 737 mmHg 81%
    08:00 +8°C° 0.5 mm 2 m/s 737 mmHg 81%
    09:00 +9°C° 0.2 mm 3 m/s 737 mmHg 78%
    10:00 +9°C° 0.2 mm 3 m/s 736 mmHg 75%
    11:00 +10°C° 0.2 mm 3 m/s 736 mmHg 73%
    12:00 +11°C° 0.2 mm 3 m/s 736 mmHg 69%
    13:00 +12°C° 0.2 mm 3 m/s 736 mmHg 65%
    14:00 +13°C° 0.2 mm 3 m/s 736 mmHg 62%
    15:00 +12°C° 0.4 mm 3 m/s 735 mmHg 63%
    16:00 +12°C° 0.4 mm 4 m/s 735 mmHg 64%
    17:00 +12°C° 0.4 mm 4 m/s 735 mmHg 65%
    18:00 +11°C° 0.5 mm 3 m/s 735 mmHg 69%
    19:00 +10°C° 0.5 mm 3 m/s 735 mmHg 73%
    20:00 +9°C° 0.5 mm 3 m/s 735 mmHg 77%
    21:00 +8°C° 0.2 mm 4 m/s 735 mmHg 74%
    22:00 +8°C° 0.2 mm 5 m/s 735 mmHg 70%
    23:00 +7°C° 0.2 mm 6 m/s 736 mmHg 67%

    Après-demain, 22 Avril, Lundi

    Heure Température Précipitation Vent Pression Humidité
    00:00 +7°C° 0 mm 6 m/s 736 mmHg 66%
    01:00 +7°C° 0 mm 6 m/s 736 mmHg 66%
    02:00 +5°C° 0 mm 6 m/s 736 mmHg 65%
    03:00 +5°C° 0 mm 6 m/s 736 mmHg 66%
    04:00 +4°C° 0 mm 6 m/s 736 mmHg 67%
    05:00 +4°C° 0 mm 6 m/s 736 mmHg 69%
    06:00 +4°C° 0 mm 7 m/s 736 mmHg 64%
    07:00 +5°C° 0 mm 8 m/s 737 mmHg 59%
    08:00 +6°C° 0 mm 9 m/s 737 mmHg 55%
    09:00 +7°C° 0 mm 9 m/s 737 mmHg 51%
    10:00 +10°C° 0 mm 9 m/s 737 mmHg 48%
    11:00 +11°C° 0 mm 9 m/s 738 mmHg 45%
    12:00 +11°C° 0 mm 9 m/s 738 mmHg 44%
    13:00 +12°C° 0 mm 9 m/s 737 mmHg 44%
    14:00 +12°C° 0 mm 9 m/s 737 mmHg 44%
    15:00 +12°C° 0 mm 9 m/s 737 mmHg 45%
    16:00 +12°C° 0 mm 8 m/s 737 mmHg 47%
    17:00 +11°C° 0 mm 8 m/s 737 mmHg 48%
    18:00 +10°C° 0 mm 8 m/s 737 mmHg 52%
    19:00 +9°C° 0 mm 7 m/s 738 mmHg 55%
    20:00 +8°C° 0 mm 6 m/s 738 mmHg 59%
    21:00 +8°C° 0 mm 6 m/s 738 mmHg 59%
    22:00 +7°C° 0 mm 6 m/s 738 mmHg 59%
    23:00 +7°C° 0 mm 6 m/s 738 mmHg 59%

    23 Avril, Mardi

    Heure Température Précipitation Vent Pression Humidité
    00:00 +7°C° 0 mm 6 m/s 738 mmHg 61%
    01:00 +5°C° 0 mm 6 m/s 738 mmHg 62%
    02:00 +5°C° 0 mm 6 m/s 739 mmHg 64%
    03:00 +5°C° 0 mm 6 m/s 739 mmHg 63%
    04:00 +4°C° 0 mm 6 m/s 739 mmHg 63%
    05:00 +4°C° 0 mm 6 m/s 739 mmHg 62%
    06:00 +5°C° 0 mm 8 m/s 739 mmHg 59%
    07:00 +6°C° 0 mm 9 m/s 739 mmHg 55%
    08:00 +7°C° 0 mm 10 m/s 739 mmHg 52%
    09:00 +8°C° 0 mm 10 m/s 739 mmHg 50%
    10:00 +9°C° 0 mm 10 m/s 739 mmHg 48%
    11:00 +11°C° 0 mm 11 m/s 739 mmHg 46%
    12:00 +12°C° 0 mm 11 m/s 738 mmHg 45%
    13:00 +12°C° 0 mm 11 m/s 738 mmHg 44%
    14:00 +13°C° 0 mm 10 m/s 738 mmHg 43%
    15:00 +13°C° 0 mm 10 m/s 737 mmHg 45%
    16:00 +13°C° 0 mm 10 m/s 737 mmHg 47%
    17:00 +12°C° 0 mm 9 m/s 737 mmHg 49%
    18:00 +11°C° 0 mm 9 m/s 737 mmHg 53%
    19:00 +10°C° 0 mm 8 m/s 737 mmHg 56%
    20:00 +9°C° 0 mm 7 m/s 737 mmHg 60%
    21:00 +9°C° 0 mm 8 m/s 738 mmHg 60%
    22:00 +9°C° 0 mm 8 m/s 738 mmHg 60%
    23:00 +7°C° 0 mm 9 m/s 738 mmHg 60%

    24 Avril, Mercredi

    Heure Température Précipitation Vent Pression Humidité
    00:00 +7°C° 0 mm 9 m/s 738 mmHg 61%
    01:00 +7°C° 0 mm 8 m/s 738 mmHg 62%
    02:00 +7°C° 0 mm 8 m/s 738 mmHg 63%
    03:00 +6°C° 0 mm 8 m/s 738 mmHg 64%
    04:00 +6°C° 0 mm 8 m/s 738 mmHg 65%
    05:00 +6°C° 0 mm 8 m/s 738 mmHg 66%
    06:00 +6°C° 0 mm 9 m/s 738 mmHg 66%
    07:00 +7°C° 0 mm 9 m/s 739 mmHg 65%
    08:00 +7°C° 0 mm 10 m/s 739 mmHg 65%
    09:00 +8°C° 0 mm 10 m/s 739 mmHg 62%
    10:00 +11°C° 0 mm 10 m/s 739 mmHg 60%
    11:00 +12°C° 0 mm 10 m/s 739 mmHg 58%
    12:00 +12°C° 0 mm 10 m/s 739 mmHg 57%
    13:00 +13°C° 0 mm 10 m/s 739 mmHg 57%
    14:00 +14°C° 0 mm 10 m/s 739 mmHg 56%
    15:00 +15°C° 0 mm 9 m/s 739 mmHg 56%
    16:00 +15°C° 0 mm 9 m/s 739 mmHg 57%
    17:00 +15°C° 0 mm 8 m/s 739 mmHg 57%
    18:00 +14°C° 0 mm 7 m/s 739 mmHg 60%
    19:00 +12°C° 0 mm 7 m/s 739 mmHg 63%
    20:00 +11°C° 0 mm 6 m/s 739 mmHg 66%
    21:00 +10°C° 0 mm 6 m/s 739 mmHg 65%
    22:00 +10°C° 0 mm 6 m/s 739 mmHg 65%
    23:00 +10°C° 0 mm 7 m/s 739 mmHg 65%

    25 Avril, Jeudi

    Heure Température Précipitation Vent Pression Humidité
    00:00 +10°C° 0 mm 7 m/s 739 mmHg 66%
    01:00 +9°C° 0 mm 7 m/s 739 mmHg 68%
    02:00 +9°C° 0 mm 7 m/s 739 mmHg 69%
    03:00 +8°C° 0 mm 7 m/s 739 mmHg 70%
    04:00 +8°C° 0 mm 7 m/s 739 mmHg 70%
    05:00 +8°C° 0 mm 7 m/s 740 mmHg 71%
    06:00 +8°C° 0 mm 7 m/s 740 mmHg 68%
    07:00 +9°C° 0 mm 8 m/s 740 mmHg 66%
    08:00 +10°C° 0 mm 8 m/s 740 mmHg 63%
    09:00 +11°C° 0 mm 8 m/s 740 mmHg 60%
    10:00 +13°C° 0 mm 8 m/s 740 mmHg 56%
    11:00 +15°C° 0 mm 9 m/s 740 mmHg 53%
    12:00 +16°C° 0 mm 9 m/s 739 mmHg 52%
    13:00 +16°C° 0 mm 9 m/s 739 mmHg 51%
    14:00 +17°C° 0 mm 9 m/s 739 mmHg 49%
    15:00 +17°C° 0 mm 9 m/s 738 mmHg 51%
    16:00 +17°C° 0 mm 8 m/s 738 mmHg 52%
    17:00 +17°C° 0 mm 8 m/s 737 mmHg 53%
    18:00 +15°C° 0 mm 8 m/s 737 mmHg 57%
    19:00 +14°C° 0 mm 7 m/s 737 mmHg 61%
    20:00 +12°C° 0 mm 7 m/s 737 mmHg 64%
    21:00 +12°C° 0 mm 7 m/s 737 mmHg 64%
    22:00 +12°C° 0 mm 8 m/s 737 mmHg 64%
    23:00 +11°C° 0 mm 8 m/s 737 mmHg 63%
    Voir plus